Velovelo
Português Nederlands 日本語 中文
Español English čeština slovenčina
русский italiano polski norsk
français Deutsch svenska عربي
 
 前のページ
 メールでの問い合わせ
 印刷する
 ---> Etape du Tour Vélomagazine 2006 : Class du Vainqueur au 1000ème

ClassNomPrénom.Cat.C.Cat..Temps...Pays
1 SONNERY Blaise A 1 06:01:06 FRENCH
2 PERILLAT Frederic B 1 06:01:35 FRENCH
3 SARLIN Jean-Noël B 2 06:02:40 FRENCH
4 MARCON Laurent B 3 06:04:29 FRENCH
5 ROUX Michel C 1 06:04:38 FRENCH
6 LE PABIC Anthony A 2 06:05:34 FRENCH
7 WEISSHAUPT Marc B 4 06:07:01 GERMANY
8 DE VECCHI David B 5 06:07:11 FRENCH
9 MESTRE Bruno B 6 06:07:43 FRENCH
10 DANION David B 7 06:09:11 FRENCH
11 SACAZE Michel D 1 06:09:25 FRENCH
12 RIT Stéphane B 8 06:11:02 FRENCH
13 CHAVENT Roland B 9 06:12:00 FRENCH
14 ARGANS Philippe A 3 06:13:48 FRENCH
15 ROBIN Denis A 4 06:14:23 FRENCH
16 JEGOU Jean-François A 5 06:14:27 FRENCH
17 BOUTHIAUX Stéphane C 2 06:16:14 FRENCH
18 MAS Clément A 6 06:16:30 FRENCH
19 PERILLAUD David B 10 06:16:45 FRENCH
20 FOURNIER Gilles B 11 06:17:55 FRENCH
21 CHEVALLIER Stéphane C 3 06:18:23 FRENCH
22 COTTY Michael A 7 06:19:02 UNITED KINGDOM
23 ROBERT Julien B 12 06:19:41 FRENCH
24 SNERTHAMMER Odd B 13 06:20:08 NORWAY
25 RAULT Yann A 8 06:20:31 FRENCH
26 BAROT Jean-Louis C 4 06:20:43 FRENCH
27 ZEBRACKI Philippe A 9 06:21:02 FRENCH
28 CHANTEPIE Jérôme B 14 06:21:09 FRENCH
29 BONNET Philippe B 15 06:21:13 FRENCH
30 MARGUET Gilles B 16 06:21:54 FRENCH
31 DOMINGUEZ LEMOS Gustavo A 10 06:22:49 SPAIN
32 DOLU Edgar B 17 06:24:26 FRENCH
33 GAUTIER Pascal C 5 06:24:47 FRENCH
34 TASSI Jean-Marcel D 2 06:25:53 FRENCH
35 VILLEGAS Aron A 11 06:26:01 SPAIN
37 BERTHOLET Sebastien A 13 06:26:13 FRENCH
36 CHAPRON Yann A 12 06:26:13 FRENCH
38 GAYDON Fabrice B 18 06:26:22 FRENCH
39 BEILLEVERT Laurent B 19 06:27:31 FRENCH
40 LACOME Francois C 6 06:28:14 FRENCH
41 MASSAUD Richard B 20 06:28:44 FRENCH
42 COTTIN Denis C 7 06:29:26 FRENCH
43 CHAUDUN Bruno B 21 06:29:57 FRENCH
44 LANG Pascal C 8 06:30:07 FRENCH
45 HUTIN Emmanuel A 14 06:30:48 FRENCH
46 ARNAULT Lionel B 22 06:30:52 FRENCH
47 BIREMONT Cyril B 23 06:30:57 FRENCH
48 GINESTET Thierry B 24 06:31:23 FRENCH
49 MAILFAIT Sébastien B 25 06:31:38 FRENCH
50 RICHARD Stanislas C 9 06:31:51 FRENCH
51 REMY Alain B 26 06:32:30 FRENCH
52 CHAMPION Philippe A 15 06:32:39 FRENCH
53 LANGASQUE Didier B 27 06:32:42 FRENCH
54 NOEL Frédéric C 10 06:32:45 FRENCH
55 PAILLARD Franck B 28 06:32:48 FRENCH
56 FOURNIER Yves B 29 06:33:14 FRENCH
57 BERLIOUX Yves C 11 06:33:59 FRENCH
58 SABATIER Stephan C 12 06:34:31 FRENCH
59 STAM Danny B 30 06:34:46 NETHERLANDS, THE
60 WATTS David C 13 06:34:54 UNITED KINGDOM
61 LAULERQUE Olivier B 31 06:34:58 FRENCH
62 BAILE Jean-Paul C 14 06:35:07 FRENCH
63 CHRETIEN Florent B 32 06:35:35 FRENCH
64 MERMOUD Nicolas C 15 06:35:55 FRENCH
65 DEMANOV Yury C 16 06:36:03 RUSSIA
66 DUBEST Alexandre A 16 06:36:04 FRENCH
67 ROUDIER Denis B 33 06:36:17 FRENCH
68 MAS Damien A 17 06:36:22 FRENCH
69 DIRHEIMER Mickael A 18 06:36:24 FRENCH
70 HOLDSWORTH Paul C 17 06:36:30 UNITED KINGDOM
71 CHEYLAN Stéphane B 34 06:36:43 FRENCH
72 SAYSSET Karine F 1 06:36:44 FRENCH
73 CASTAIGNS Jean-Claude B 35 06:37:13 FRENCH
74 COLEMAN VI Thomas J B 36 06:37:26 UNITED STATES
75 GUERIN Jean C 18 06:37:39 FRENCH
76 OMPRARET Herve B 37 06:37:49 FRENCH
77 HENON Guy D 3 06:37:53 FRENCH
78 DESTAL Frederic B 38 06:38:18 FRENCH
79 FONTAINE Vincent B 39 06:38:37 FRENCH
80 JUILLARD Pascal C 19 06:38:44 FRENCH
81 SLIPPENS Robert A 19 06:38:45 NETHERLANDS, THE
82 VINCENDEAU Claude B 40 06:39:00 FRENCH
83 MANSE Daniel B 41 06:39:04 FRENCH
84 JACKSON Simon B 42 06:39:13 UNITED KINGDOM
85 DUMONT Mathieu B 43 06:39:16 FRENCH
86 LE CAM Rene D 4 06:39:38 FRENCH
87 D’OLIVEIRA Felismino C 20 06:40:01 FRENCH
88 BOURDON Hervé B 44 06:40:05 FRENCH
89 MATHY Thierry C 21 06:40:12 BELGIUM
90 DEPLANTE Gilles C 22 06:40:19 FRENCH
91 LEMOUR Lionel B 45 06:40:38 FRENCH
92 MOCQUERY Patrick D 5 06:41:09 FRENCH
93 DELAHAYE Sylvain B 46 06:41:21 FRENCH
94 DERISSON Didier C 23 06:41:35 FRENCH
95 TOMBELAINE Régis C 24 06:41:57 FRENCH
96 NAVARRO Serge C 25 06:42:08 FRENCH
97 BESQUEUT Sébastien A 20 06:42:22 FRENCH
98 TOURNOUX Laurent B 47 06:43:08 FRENCH
99 POURRAT Christophe B 48 06:44:09 FRENCH
100 LEJEUNE Romain A 21 06:44:12 FRENCH
101 BORIES Bernard C 26 06:44:15 FRENCH
102 LEMAITRE Bertrand B 49 06:44:30 FRENCH
103 DAVID RAISON Thierry C 27 06:44:42 FRENCH
104 PELLEGRIN Bruno A 22 06:44:45 FRENCH
105 LACROIX Philippe C 28 06:44:56 FRENCH
106 BRUANT Philippe C 29 06:45:03 FRENCH
107 SANCHEZ Emmanuel B 50 06:45:46 FRENCH
108 RUEPP Martin B 51 06:45:58 RUSSIA
109 SOKOL Vincent B 52 06:46:03 FRENCH
110 LE HYARIC Steven A 23 06:46:20 FRENCH
111 BOIVIN Christophe C 30 06:46:32 FRENCH
112 CHAMPALLE Pascal C 31 06:47:01 FRENCH
113 CHABERT Dominique C 32 06:47:05 FRENCH
114 CHARDON Laurent B 53 06:47:13 FRENCH
115 KAY Alastair B 54 06:47:59 UNITED KINGDOM
116 CHAVY Franck B 55 06:48:10 FRENCH
117 VANTOMME Jacques C 33 06:48:13 FRENCH
118 DERKSEN Jan D 6 06:48:13 NETHERLANDS, THE
119 BROCHET Romain A 24 06:48:14 FRENCH
120 FOUGERAY Xavier A 25 06:48:19 FRENCH
121 CHAVANEL Sébastien A 26 06:48:19 FRENCH
122 LERAT Michel D 7 06:48:21 FRENCH
123 MULLER Jan B 56 06:48:59 SWITZERLAND
124 RECORDON Joel D 8 06:49:02 FRENCH
125 DE VECCHI Christophe C 34 06:49:07 FRENCH
126 LE BRUN Yves D 9 06:49:32 FRENCH
127 ESTIVAL Jacques B 57 06:49:46 FRENCH
129 TOULLEC Yannick B 59 06:49:52 FRENCH
128 BARTHELEMY Jean-Claude B 58 06:49:52 FRENCH
130 BOYRIE Jean-Pierre B 60 06:49:52 FRENCH
131 SAUTHIER Bastien A 27 06:49:53 FRENCH
132 PEBAY Sylvain D 10 06:50:01 FRENCH
133 VRIGNON Cyril B 61 06:50:16 FRENCH
134 AMICI Dominique C 35 06:50:18 FRENCH
135 LACOSTE David A 28 06:51:05 FRENCH
136 UTSUMI Yoshitomo B 62 06:51:07 JAPAN
137 ROUX Jean-Pascal C 36 06:51:15 FRENCH
138 MOREAU Nicolas A 29 06:51:26 FRENCH
139 MAINARD Didier C 37 06:51:27 FRENCH
140 COUDERC Didier B 63 06:51:30 FRENCH
141 NAVARRO POLO Bonifacio M B 64 06:51:34 SPAIN
142 ARNAUD Christophe B 65 06:51:37 FRENCH
143 MOTTIER Laurent B 66 06:51:41 SWITZERLAND
144 CLEMENS Olivier B 67 06:51:48 FRENCH
145 BOURMAUD Sebastien B 68 06:51:53 FRENCH
146 CHAPELLE Jérémie A 30 06:52:00 FRENCH
147 BOGART Alain C 38 06:52:04 FRENCH
148 DEPETRIS Alain C 39 06:52:08 FRENCH
149 BRIAND Gilles D 11 06:52:16 FRENCH
150 AUBERGET Franck C 40 06:52:24 FRENCH
151 ZILIOLI Frederic C 41 06:52:28 FRENCH
152 VERZEROLI Alain D 12 06:52:35 FRENCH
153 DA COSTA Manuel C 42 06:52:41 FRENCH
154 GUY Fabrice B 69 06:53:09 FRENCH
155 DUPORGE Jean-Pierre C 43 06:53:14 FRENCH
156 PETRO Alec C 44 06:53:36 UNITED STATES
157 MICHEL Stéphane B 70 06:53:37 FRENCH
158 KARCHER Bernard C 45 06:53:44 FRENCH
159 LEON Thierry C 46 06:53:45 FRENCH
160 SORINE Michel C 47 06:53:45 FRENCH
161 GADBLED Jérôme A 31 06:53:51 FRENCH
162 VOYARD Martial C 48 06:54:25 FRENCH
163 ROOKS Steven C 49 06:54:35 NETHERLANDS, THE
164 NOVAK Miroslav D 13 06:54:40 UNITED STATES
165 GALLIN Stéphane B 71 06:54:41 FRENCH
166 MONJALES Frederic C 50 06:54:48 FRENCH
167 BILLON Etienne C 51 06:54:50 FRENCH
168 RODRIGUES Antonio C 52 06:55:02 SWITZERLAND
169 PARREE Maurice B 72 06:55:09 NETHERLANDS, THE
170 LEGER Franck B 73 06:55:21 FRENCH
171 MICHAUD FIDEY Cyril B 74 06:55:33 FRENCH
172 AYROLE Nicolas A 32 06:55:41 FRENCH
173 LEJEUNE Didier C 53 06:55:44 FRENCH
174 NOEL Serge C 54 06:55:46 FRENCH
175 TROUBAT Philippe D 14 06:55:51 FRENCH
176 COLIN Fabrice C 55 06:56:04 FRENCH
177 DARRACQ Didier B 75 06:56:14 FRENCH
178 COLIN Serge C 56 06:56:15 FRENCH
179 SLACK Jeff C 57 06:56:17 UNITED KINGDOM
180 CERVONI Christian C 58 06:56:21 FRENCH
181 STRAPPAZZON Patrick B 76 06:56:35 FRENCH
182 BAILLY Yves C 59 06:56:45 FRENCH
183 RIVES Emmanuel B 77 06:56:50 FRENCH
184 FORBES Scott B 78 06:57:10 UNITED KINGDOM
185 PELLERIN Fabrice B 79 06:57:12 FRENCH
186 LAMONTAGNE Pierre Marc C 60 06:57:39 FRENCH
187 CHEVRON Nicolas A 33 06:57:42 FRENCH
188 LANDELLE Laurent C 61 06:57:42 FRENCH
189 STANESCO Joël D 15 06:57:43 FRENCH
190 CHABOT Patrick C 62 06:57:45 FRENCH
191 SANTEN Paul C 63 06:57:48 NETHERLANDS, THE
192 SOULEROT Philippe D 16 06:57:54 FRENCH
193 GRATIOT Christian C 64 06:58:05 FRENCH
194 HUMBERT Alain C 65 06:58:15 FRENCH
195 LAMOUROUX Hervé C 66 06:58:34 FRENCH
196 LE MOIGNE Christophe B 80 06:58:37 FRENCH
197 CARAMELLO Lionel C 67 06:58:42 FRENCH
198 PUGNET Alain E 1 06:58:47 FRENCH
199 BUVAT Pierrick B 81 06:58:51 FRENCH
200 JOLY Marie G 1 06:58:55 FRENCH
201 FREAU Denis D 17 06:58:57 FRENCH
202 JULIEN Philippe B 82 06:59:07 FRENCH
203 GOURNAY Cyril B 83 06:59:18 FRENCH
204 ROUBERTIES Cyrille B 84 06:59:25 FRENCH
205 CUSSEAU Sylvain C 68 06:59:29 FRENCH
206 BLEHAUT Ludovic B 85 06:59:29 FRENCH
207 PROST Alain D 18 06:59:33 FRENCH
208 ROBERTS Jason B 86 06:59:34 FRENCH
209 CHAVY Henri D 19 06:59:39 FRENCH
210 FOURNEL David B 87 06:59:50 FRENCH
211 DESBRINI Cédric B 88 06:59:56 FRENCH
213 RIVIERE Philippe C 69 07:00:23 FRENCH
212 SAUVAGET Bruno B 89 07:00:23 FRENCH
214 KAMARAD Lionel C 70 07:00:37 FRENCH
215 ARNAUD Christophe B 90 07:00:43 FRENCH
216 TUFFIN Gilbert E 2 07:01:03 FRENCH
217 MAUBERT Lionel B 91 07:01:09 FRENCH
218 FORBES Graeme B 92 07:01:14 UNITED KINGDOM
219 BALAUDE Jean-François C 71 07:01:16 FRENCH
220 DUBOSQ Thierry D 20 07:01:36 FRENCH
221 PAYANY Denis B 93 07:01:47 FRENCH
222 ROUSTAIN Didier C 72 07:01:52 FRENCH
223 FARAMA Olivier B 94 07:01:53 FRENCH
224 ANDREWS Guy B 95 07:01:57 UNITED KINGDOM
226 SINTES Michael B 96 07:01:59 FRENCH
225 BORDERIE Daniel D 21 07:01:59 FRENCH
227 PILON Laurent A 34 07:02:09 FRENCH
228 CORNIAU Geoffrey A 35 07:02:11 FRENCH
229 PAUVRE Michel D 22 07:02:13 FRENCH
230 JEANNEROD Yannick A 36 07:02:19 FRENCH
231 PAILLOT Raymond C 73 07:02:27 FRENCH
232 DAIFUKU Chris A 37 07:02:39 UNITED STATES
233 OHARA Ian B 97 07:02:42 UNITED KINGDOM
234 BRAY Julian C 74 07:02:42 UNITED KINGDOM
235 GAILLARD Eric C 75 07:02:45 FRENCH
236 HORUCKOWA Sylvain C 76 07:02:54 FRENCH
237 BURTON John James B 98 07:03:26 NETHERLANDS, THE
238 LAVELOT Bertrand C 77 07:03:50 FRENCH
240 MICHEL Jocelyn B 99 07:03:59 FRENCH
239 CRAPEZ Luc C 78 07:03:59 FRENCH
241 MROSEK Eike B 100 07:04:03 GERMANY
242 LANIGAN William B 101 07:04:40 FRENCH
243 VALLA Olivier B 102 07:04:47 FRENCH
244 BOUILLAUX David A 38 07:04:59 FRENCH
245 ATKINSON Simon C 79 07:05:04 FRENCH
246 PORTE Olivier C 80 07:05:10 FRENCH
247 MENAGE Christophe B 103 07:05:14 FRENCH
248 BLANCHARD Sebastien B 104 07:05:17 FRENCH
249 GERMA Bruno B 105 07:05:21 FRENCH
250 MOUGEL Daniel C 81 07:05:28 FRENCH
251 POSNIC Christian D 23 07:05:31 FRENCH
252 SOMERVILLE Liam A 39 07:05:34 UNITED KINGDOM
253 BOUILLAC Franck B 106 07:05:35 FRENCH
254 WEBSTER Graham B 107 07:05:38 UNITED KINGDOM
255 GRANT Eugène B 108 07:05:52 UNITED KINGDOM
256 CHAUVIN François B 109 07:06:05 FRENCH
257 SZLUFCIK Zibi B 110 07:06:12 GERMANY
258 MC LAUGHLIN Scott B 111 07:06:24 GERMANY
259 FRANCOIS Thierry C 82 07:06:35 FRENCH
260 DUFFET Frédéric C 83 07:06:46 FRENCH
261 BRUNET Fréderic B 112 07:06:56 FRENCH
262 NOGUEIRA Fernand B 113 07:07:02 FRENCH
263 RYK Denny B 114 07:07:08 NETHERLANDS, THE
264 VIALARET Jean Christophe C 84 07:07:10 CANADA
265 CHAURAND Arnaud A 40 07:07:11 FRENCH
266 LABORDE Ronan A 41 07:07:18 FRENCH
267 GALLOT Jerome C 85 07:07:35 FRENCH
268 GOSSET Jean-Marc C 86 07:07:36 FRENCH
269 LALANNE Bertrand C 87 07:07:40 FRENCH
270 BARTHELEMY Laurent B 115 07:07:49 FRENCH
271 HAMON Jean-Luc C 88 07:07:57 FRENCH
272 DEKREON Pierre D 24 07:08:02 FRENCH
273 CALLAND Stephen B 116 07:08:06 UNITED KINGDOM
274 KELLY Andrew C 89 07:08:09 UNITED KINGDOM
275 DUC Sébastien A 42 07:08:22 FRENCH
276 BRETONNIERE Julien A 43 07:08:24 FRENCH
277 PHILLIPS Sam C 90 07:08:26 UNITED KINGDOM
278 MERCER Andrew B 117 07:08:28 UNITED KINGDOM
279 BOUCHET Benoït A 44 07:08:36 FRENCH
280 FRAICHER Florent B 118 07:08:45 FRENCH
281 RAUPACH Ken J C 91 07:08:46 AUSTRALIA
282 BOUYER Alain C 92 07:08:47 FRENCH
283 PICAUD Christian D 25 07:08:48 FRENCH
284 NOURRY Stephane B 119 07:08:57 FRENCH
285 PAULY Frédéric B 120 07:09:03 FRENCH
286 BANTQUIN Frederic A 45 07:09:05 FRENCH
287 TONNEAU Patrick D 26 07:09:11 FRENCH
288 LEVEQUE Jean-Claude C 93 07:09:13 FRENCH
289 BAZAILLACQ Patrick C 94 07:09:49 FRENCH
290 SNOWDEN Mark C 95 07:09:55 UNITED KINGDOM
291 DESPLACES Alain E 3 07:10:14 FRENCH
292 BERTOUX Jacques B 121 07:10:20 FRENCH
293 BOUTHIAUX François C 96 07:10:26 FRENCH
294 DOCQUOIS Franck B 122 07:10:27 FRENCH
295 WAREHAM Mark B 123 07:10:33 UNITED KINGDOM
296 CHEREL Jean Luc B 124 07:10:37 FRENCH
297 PETITPREZ Benoit A 46 07:11:00 FRENCH
298 KLUFTS Eric B 125 07:11:04 FRENCH
299 TURK Arno B 126 07:11:12 CANADA
300 ABEL Jean-Philippe C 97 07:11:15 FRENCH
301 MERCIER Jean-Claude D 27 07:11:15 FRENCH
302 HONORAT Fabrice B 127 07:11:17 FRENCH
303 BURON Michel D 28 07:11:20 FRENCH
304 CHATONNET Fabien B 128 07:11:22 FRENCH
305 MAS Guy D 29 07:11:24 FRENCH
306 HADID Raphaël B 129 07:11:27 FRENCH
307 MORAND Joseph D 30 07:11:39 FRENCH
308 LEVAVASSEUR Pascal C 98 07:11:44 FRENCH
309 JACKSON Andrew C 99 07:11:51 UNITED KINGDOM
310 LLORET Michel D 31 07:11:54 FRENCH
311 EVEN Albert E 4 07:12:06 LUXEMBOURG
312 JEANNE Christian C 100 07:12:27 FRENCH
313 CABANTOUS Pascal B 130 07:12:29 FRENCH
314 CLOUYE Franck B 131 07:12:31 FRENCH
315 FAVA Franck B 132 07:12:49 FRENCH
316 GAULANDEAU Hugues C 101 07:12:51 FRENCH
317 DELARACE Philippe C 102 07:13:02 FRENCH
318 MORY Bernard D 32 07:13:08 FRENCH
319 BALLESTER Frédéric B 133 07:13:16 FRENCH
320 PIGANIOL Marc C 103 07:13:19 FRENCH
321 HERRAULT Alain C 104 07:13:21 FRENCH
322 LABOURY Johann A 47 07:13:26 FRENCH
323 CHAMPMARTIN Nicolas A 48 07:13:35 FRENCH
324 BORCARD Christophe B 134 07:13:38 FRENCH
325 DUCOMBS Michel D 33 07:13:39 FRENCH
326 LANQUETIN Yves B 135 07:13:42 FRENCH
327 DIEZ Ramon B 136 07:13:42 SPAIN
328 CAPELLARO Jean C 105 07:13:43 FRENCH
329 DOS Frederic A 49 07:13:55 FRENCH
330 CHEVALIER Eric B 137 07:13:56 FRENCH
331 GOUYA Noel C 106 07:13:57 FRENCH
332 SALLERON Laurent C 107 07:14:06 FRENCH
333 PERILLAT Frédéric B 138 07:14:15 FRENCH
334 LAFENETRE Patrick C 108 07:14:18 FRENCH
335 BOISSEAU Eric C 109 07:14:22 FRENCH
336 MAITRE Guy E 5 07:14:22 FRENCH
337 TINEL Marc C 110 07:14:24 FRENCH
338 SARROU Ludovic B 139 07:14:25 FRENCH
340 BURELLIER Philippe B 140 07:14:33 FRENCH
339 RUSCETTA Gaël A 50 07:14:33 FRENCH
341 HEATH James C 111 07:14:43 UNITED KINGDOM
342 TESSIER Sébastien B 141 07:14:49 FRENCH
343 QUEVA Arnaud C 112 07:15:03 FRENCH
344 PUYDEBOIS Serge D 34 07:15:04 FRENCH
345 TROUBRIDGE Julian C 113 07:15:07 FRENCH
346 MARTIN Guy C 114 07:15:11 FRENCH
347 ALLAMANCHE Alexandre A 51 07:15:17 FRENCH
348 RIMBAULT Didier C 115 07:15:20 FRENCH
349 DE GUILLEBON Eric C 116 07:15:23 FRENCH
350 CHORETIER Aline G 2 07:15:27 FRENCH
351 CIBAT Serge C 117 07:15:29 FRENCH
352 NIENABER Gawie C 118 07:15:34 UNITED KINGDOM
353 VALOIS Patrick D 35 07:15:45 FRENCH
354 LAMMERTINK Woutjan B 142 07:15:51 NETHERLANDS, THE
355 BURFITT Nick C 119 07:16:03 UNITED KINGDOM
356 LARDELLIER Pierre B 143 07:16:13 FRENCH
357 BONDOUX Gabriel D 36 07:16:17 FRENCH
358 ARBES Emile D 37 07:16:22 FRENCH
359 CHEUCLE Alexandre C 120 07:16:23 FRENCH
360 RIOU Philippe C 121 07:16:24 FRENCH
361 DAVIES Tom C 122 07:16:28 NETHERLANDS, THE
362 COTE Ollivier C 123 07:16:32 FRENCH
363 MATHIS Eric C 124 07:16:39 FRENCH
364 KRUCK Ingo B 144 07:16:43 GERMANY
365 MAILLET Christophe B 145 07:16:52 FRENCH
366 BEROUD Arnaud A 52 07:17:00 FRENCH
367 RODRIGUEZ Michel C 125 07:17:02 FRENCH
368 PESSELON Gilles C 126 07:17:06 FRENCH
369 BOUYER Pascal A 53 07:17:11 FRENCH
370 MATHIEU Damien B 146 07:17:32 FRENCH
371 LEIGNEL Bernard B 147 07:17:41 FRENCH
372 SAINT Carl C 127 07:17:58 UNITED KINGDOM
373 LELANDAIS Pascal C 128 07:18:01 FRENCH
374 DALL ANESE Carlo B 148 07:18:11 BRAZIL
375 COUDERETTE Thierry Pierre C 129 07:18:15 FRENCH
376 FOURNIER Jérôme C 130 07:18:17 SWITZERLAND
377 FAFIN Sébastien A 54 07:18:19 FRENCH
378 RAWLINS Frank C 131 07:18:21 UNITED KINGDOM
379 WARREN David C 132 07:18:24 UNITED KINGDOM
380 HAINES Russell B 149 07:18:26 UNITED KINGDOM
381 GUILLET Ludovic B 150 07:18:32 FRENCH
382 CHAPEAU Sylvain B 151 07:18:35 FRENCH
383 FEVRIER Maxime A 55 07:18:40 FRENCH
384 URY Alain C 133 07:18:41 FRENCH
385 FOURNIER Gerard D 38 07:18:44 FRENCH
386 LEMOND Geoffrey A 56 07:18:51 UNITED STATES
387 KOTWICKI Daniel B 152 07:18:56 UNITED STATES
388 SANCHEZ Jean-Michel B 153 07:18:58 FRENCH
389 LAUR Christophe B 154 07:19:03 FRENCH
390 MEZERGUES Alain C 134 07:19:05 FRENCH
391 PELLE Georges D 39 07:19:10 FRENCH
392 BIAU Francis E 6 07:19:14 FRENCH
393 DUCHARNE Rémy B 155 07:19:18 FRENCH
394 ESSEX Rohan B 156 07:19:21 UNITED KINGDOM
395 LHARDY Michel D 40 07:19:27 FRENCH
396 FOUCAULT Steeve A 57 07:19:35 FRENCH
397 GUION Patrick C 135 07:19:36 FRENCH
398 PORTEFAIX Alain B 157 07:19:40 FRENCH
399 EGELBLAD Ole C 136 07:19:51 DENMARK
400 GERWIEN Jens C 137 07:19:56 DENMARK
401 BÖHM Ben B 158 07:20:02 SOUTH AFRICA
402 JEANJEAN Alain D 41 07:20:09 FRENCH
403 DUPERRAY David B 159 07:20:12 FRENCH
404 CABROLIER Bernard D 42 07:20:16 FRENCH
405 SANTIA ANDREWS Eric C 138 07:20:20 FRENCH
406 CENS Gérard D 43 07:20:24 FRENCH
407 ALEXANDER Simon C 139 07:20:25 UNITED KINGDOM
408 LAURENT Benoït C 140 07:20:26 FRENCH
409 HAEGHEBAERT Philippe B 160 07:20:30 NETHERLANDS, THE
410 BIHANNIC Bruno B 161 07:20:38 FRENCH
411 HEMERY Yann C 141 07:20:40 FRENCH
412 RODRIGUEZ Sébastien A 58 07:20:40 FRENCH
413 GOUBE Olivier B 162 07:20:43 FRENCH
414 RACLE Denis C 142 07:20:50 FRENCH
415 VARENNE Christophe C 143 07:20:54 FRENCH
416 HORNECKER Alain C 144 07:20:55 FRENCH
417 PARCELLIER Didier C 145 07:20:59 FRENCH
418 LAUZIER Bruno C 146 07:21:01 FRENCH
419 PASTUREAU Didier D 44 07:21:04 FRENCH
420 PREAU Stéphane C 147 07:21:08 FRENCH
421 LESAGE Philippe C 148 07:21:12 FRENCH
422 VINCENT Yann B 163 07:21:15 FRENCH
423 POUYADOU Robert D 45 07:21:16 FRENCH
424 LEE Adrian B 164 07:21:17 UNITED KINGDOM
425 LABROSSE Pierre B 165 07:21:23 FRENCH
426 ARNESEN Jens-Petter B 166 07:21:29 FRENCH
427 DOTHIE Joël A 59 07:21:34 FRENCH
428 SAUVA Fabrice A 60 07:21:48 FRENCH
429 COTTARD Christian C 149 07:22:06 FRENCH
430 MACE Paul B 167 07:22:09 UNITED KINGDOM
431 GRIFFON Yann A 61 07:22:12 FRENCH
432 GANZA Ludovic A 62 07:22:17 FRENCH
433 JELSPERGER Christian C 150 07:22:19 FRENCH
434 GAMERRE Jean-Louis D 46 07:22:21 FRENCH
435 WACH Alain C 151 07:22:24 FRENCH
436 LAMY Thierry C 152 07:22:29 FRENCH
437 CHATARD Jean-Michel C 153 07:22:30 FRENCH
438 GENTIL Roger C 154 07:22:34 FRENCH
439 KOELLER Fabrice B 168 07:22:35 FRENCH
440 JAMES Meurig A 63 07:22:37 UNITED KINGDOM
441 MECHE Christophe B 169 07:22:39 FRENCH
442 DEGOULANGE Sebastien A 64 07:22:46 FRENCH
443 BESNARD Philippe C 155 07:22:47 FRENCH
444 FOHRER Jean-Claude D 47 07:22:51 FRENCH
445 TEIXEIRA Antonio D 48 07:22:55 SWITZERLAND
446 GEAY Philippe C 156 07:22:58 FRENCH
447 ROCCHIA Christophe A 65 07:23:08 FRENCH
448 MARGAIN David B 170 07:23:09 FRENCH
449 FONTAINE Nicolas A 66 07:23:14 FRENCH
450 ELLNER Franck D 49 07:23:19 FRENCH
451 FLORENTIN Jean C 157 07:23:23 FRENCH
452 SCHRÖDER Henning B 171 07:23:28 GERMANY
453 LARDILEY Roger D 50 07:23:32 FRENCH
454 MC NEILL Kent B 172 07:23:35 UNITED STATES
455 LE DISSEZ Christophe B 173 07:23:43 FRENCH
456 FAVRE Gilles C 158 07:23:44 FRENCH
457 PITARD Stéphane B 174 07:23:49 FRENCH
458 SERCOMANENS Yann B 175 07:23:52 FRENCH
459 BERTOT Thierry C 159 07:23:56 FRENCH
460 AMANN Christian C 160 07:24:01 FRENCH
461 MAZEAU Bernard C 161 07:24:06 FRENCH
462 RABY Tony B 176 07:24:09 FRENCH
463 GAUTIER Philippe C 162 07:24:17 FRENCH
464 BETTINI Gérard E 7 07:24:23 FRENCH
465 TOURNIER Jany B 177 07:24:26 FRENCH
466 HECKEL Thomas B 178 07:24:28 FRENCH
467 GENIEZ Marc C 163 07:24:31 FRENCH
468 COUSSEAU Miguel C 164 07:24:34 FRENCH
469 BIREMONT Jean-Robert D 51 07:24:37 FRENCH
470 AIMAR Patrick C 165 07:24:40 FRENCH
471 ADAM Marc C 166 07:24:48 UNITED STATES
472 WALL Matthew C 167 07:24:52 UNITED KINGDOM
474 INCHAURRAGA Patrick D 52 07:24:54 FRENCH
473 MANGEON Steeve A 67 07:24:54 FRENCH
476 TORTIGUE Jean D 53 07:25:07 FRENCH
475 WALSH Roger B 179 07:25:07 UNITED KINGDOM
477 ETCHEGOYEN Jean Bernard C 168 07:25:08 FRENCH
478 LANDON Yves C 169 07:25:10 FRENCH
479 PATRON Philippe C 170 07:25:12 FRENCH
480 RABANY Edmond B 180 07:25:14 FRENCH
481 ROBERT Jean-Luc C 171 07:25:18 FRENCH
482 LEMOINE Jean-Luc C 172 07:25:27 FRENCH
483 BOUSSION Sylvain A 68 07:25:32 FRENCH
484 BATY Fabien A 69 07:25:37 FRENCH
485 LIZEE Sylvain B 181 07:25:40 FRENCH
486 GUICHOUX Patrice C 173 07:25:41 FRENCH
487 SCHIARI Alain D 54 07:25:42 FRENCH
488 PINAULT Frederic A 70 07:25:51 FRENCH
489 TROPBERGER Jan A 71 07:25:57 GERMANY
490 BOURDEL Pierre B 182 07:26:00 FRENCH
491 COLLIAS Philippe C 174 07:26:04 FRENCH
493 LEJEUNE Guillaume B 183 07:26:08 FRENCH
492 LEJEUNE Gregory A 72 07:26:08 FRENCH
494 NUNES Carlos C 175 07:26:12 SWITZERLAND
495 MROWCZYNSKI Piotr B 184 07:26:14 POLAND
496 MENNESSON Michel D 55 07:26:14 FRENCH
497 GOUMY Vincent A 73 07:26:15 FRENCH
498 LANGTON HEWER Simon C 176 07:26:15 UNITED KINGDOM
499 TURILLON Emmanuel C 177 07:26:18 FRENCH
501 GUILLAUME Thierry C 179 07:26:21 FRENCH
500 MICHEL Pascal C 178 07:26:21 FRENCH
502 JÄRLSTIG Andreas B 185 07:26:23 SWEDEN
503 GUERIN Frédéric C 180 07:26:32 FRENCH
504 GIROD Florent B 186 07:26:33 FRENCH
505 ROBQUIN Fabrice C 181 07:26:41 FRENCH
506 ANCELIN Vincent B 187 07:26:50 FRENCH
507 COMBES Stephan B 188 07:26:54 FRENCH
508 PRESSOIR Gerard D 56 07:26:54 FRENCH
510 VIGNAUD Stéphane C 182 07:26:56 FRENCH
509 MURAT Ronald B 189 07:26:56 FRENCH
511 DUPLUS Marc D 57 07:26:58 FRENCH
512 COCHARD Jean-François B 190 07:27:01 FRENCH
513 NAGY Mark B 191 07:27:21 UNITED STATES
515 DORN Jean-François B 193 07:27:27 FRENCH
514 CHARLES Julien B 192 07:27:27 FRENCH
516 GAUTHIER Joel D 58 07:27:28 FRENCH
517 ROCHEDY Philippe C 183 07:27:29 FRENCH
518 MAUCOTEL Bruno C 184 07:27:33 FRENCH
519 LACHAUME Jean-Philippe B 194 07:27:35 FRENCH
520 PAILLOT Claude C 185 07:27:36 FRENCH
521 VAN ALEN Wiel D 59 07:27:38 NETHERLANDS, THE
522 BARTHELEMY Bernard B 195 07:27:47 FRENCH
523 PAWLIK David B 196 07:27:49 FRENCH
524 WALLIANG Frederic B 197 07:27:50 FRENCH
525 VAIDIE Gilbert D 60 07:27:51 FRENCH
526 COAIL Louis D 61 07:27:54 FRENCH
527 DEUX Lyonel B 198 07:27:58 FRENCH
530 HUYGHE Bernard D 63 07:28:03 FRENCH
528 RAMOND André D 62 07:28:03 FRENCH
531 JACKSON Nick C 186 07:28:03 UNITED KINGDOM
529 SCOTT Barry B 199 07:28:03 UNITED KINGDOM
532 DEBRUGES Olivier C 187 07:28:05 FRENCH
533 LAUR Paul E 8 07:28:06 FRENCH
534 BAUDOUIN Cyril B 200 07:28:06 FRENCH
535 ROUQUETTE Jean-Louis D 64 07:28:12 FRENCH
536 SORIANO Eric C 188 07:28:13 FRENCH
537 ROMEAS Serge B 201 07:28:18 FRENCH
538 DOMECQ Benoit C 189 07:28:19 FRENCH
539 FORISSIER Sylvain A 74 07:28:23 FRENCH
540 ROUSSEL Patrick C 190 07:28:26 FRENCH
541 PEYREMOLE David B 202 07:28:31 FRENCH
542 BARON Serge D 65 07:28:32 FRENCH
543 MARGINIER Laurent B 203 07:28:33 FRENCH
544 TOURNADRE Gérard D 66 07:28:34 FRENCH
545 VAN MOORLEHEM Eric B 204 07:28:35 UNITED STATES
546 LAVANANT Philippe B 205 07:28:36 FRENCH
547 BONDOUX Jean-Michel C 191 07:28:38 FRENCH
548 DERAIN Dominique D 67 07:28:46 FRENCH
549 ARAUJO Alexander B 206 07:28:51 UNITED KINGDOM
550 THIESSEN Eddy B 207 07:28:58 NETHERLANDS, THE
551 MCLOUGHLIN David A 75 07:28:58 FRENCH
552 VIGREUX Laurent B 208 07:29:00 FRENCH
553 LEBEAU Jerôme B 209 07:29:03 FRENCH
554 GIUSTI Jean Paul C 192 07:29:06 FRENCH
555 BEAUFILS Christophe B 210 07:29:12 FRENCH
556 VEILLARD Patrick C 193 07:29:16 FRENCH
557 HUNT Steve C 194 07:29:20 UNITED STATES
558 PERROUD Yann B 211 07:29:22 FRENCH
559 POIRIER Stéphane C 195 07:29:27 FRENCH
561 FAU Yannick C 197 07:29:29 FRENCH
560 MARGUET Gabriel C 196 07:29:29 SWITZERLAND
562 MIGNOT Nicolas A 76 07:29:31 FRENCH
563 VAN DEN BROEK Marc C 198 07:29:34 BELGIUM
564 LAVEUVE Eric C 199 07:29:36 FRENCH
565 CORONADO Jean Pierre D 68 07:29:37 FRENCH
567 GESTRAUD Jacques E 9 07:29:41 FRENCH
566 ALARD Christian C 200 07:29:41 FRENCH
568 PEHAU René D 69 07:29:51 FRENCH
569 MILLET Thibault B 212 07:29:53 FRENCH
570 BODO Rosemond E 10 07:30:00 FRENCH
571 DARDIER Jean Marc C 201 07:30:09 FRENCH
572 LAFRANCHISE Didier D 70 07:30:10 FRENCH
573 OLIVER Lee C 202 07:30:10 UNITED KINGDOM
574 SALINI Eraldo C 203 07:30:11 UNITED KINGDOM
575 PEIXOTO Julio D 71 07:30:12 FRENCH
576 DURAND Marc C 204 07:30:13 FRENCH
577 GODLEY Roger C 205 07:30:14 UNITED KINGDOM
578 MARSZATEK Daniel B 213 07:30:15 POLAND
579 ROUSSET Jean-François B 214 07:30:16 FRENCH
580 RIAL Rene D 72 07:30:18 FRENCH
581 NOURRY Christophe B 215 07:30:20 FRENCH
582 MOORE Philip B 216 07:30:21 UNITED KINGDOM
583 WORTHINGTON David C 206 07:30:24 UNITED KINGDOM
584 VINAZZA Thierry B 217 07:30:25 FRENCH
585 TROONEN Guido D 73 07:30:30 BELGIUM
586 MADIEC Alain C 207 07:30:32 FRENCH
587 MONCORGE Bernard C 208 07:30:33 FRENCH
588 LALANNE Jean-Bernard D 74 07:30:36 FRENCH
589 FLEURY Alain C 209 07:30:42 FRENCH
590 MAHIER Bruno B 218 07:30:49 FRENCH
592 DEBARD Denis C 210 07:30:53 FRENCH
591 LORENZI Andrew B 219 07:30:53 FRENCH
593 FAURE Yves D 75 07:30:57 FRENCH
594 PIRES Pauloa C 211 07:31:00 PORTUGAL
595 MCDERMOTT Joe B 220 07:31:04 UNITED KINGDOM
596 EVANS Jonathan B 221 07:31:07 UNITED KINGDOM
597 VAN VLIET Jacqueline G 3 07:31:09 NETHERLANDS, THE
598 MOSHER Mark C 212 07:31:12 CANADA
599 CHASPOUL Patrick C 213 07:31:18 FRENCH
600 BOUTIN Stéphane B 222 07:31:19 FRENCH
601 GIACOMIN Arnaud B 223 07:31:27 FRENCH
602 DUSZYNSKI Fabrice B 224 07:31:29 FRENCH
604 BORRASCAS Pepe C 215 07:31:32 SPAIN
603 JASSON Jorge C 214 07:31:32 UNITED KINGDOM
605 LUFF Vaughan B 225 07:31:32 UNITED KINGDOM
606 KENNEDY Dominic A 77 07:31:33 FRENCH
607 ROY Lionel C 216 07:31:35 FRENCH
608 MURPHY John B 226 07:31:38 IRELAND
609 DRUTEL Dominique C 217 07:31:38 FRENCH
610 BUCHILLET Jean-Paul C 218 07:31:52 FRENCH
611 LEVITE Gérard D 76 07:31:53 FRENCH
613 LARQUE Jean E 11 07:31:55 FRENCH
612 KING Christopher C 219 07:31:55 SOUTH AFRICA
615 BERNARD Paul-Henri C 221 07:31:56 FRENCH
614 DAUGE Jean Marc C 220 07:31:56 FRENCH
616 COATES Colin D 77 07:31:58 NETHERLANDS, THE
618 CANON Hubert B 228 07:31:59 FRENCH
617 LEFRANC Arnaud B 227 07:31:59 FRENCH
619 SABIN Mathias A 78 07:32:00 FRENCH
620 VENEL Geoffrey A 79 07:32:02 FRENCH
621 PERRY Natasha F 2 07:32:06 UNITED KINGDOM
622 RUEDIN Xavier C 222 07:32:09 FRENCH
623 WIECKOWIAK Dominique B 229 07:32:24 FRENCH
624 CINGET Alexandre B 230 07:32:29 FRENCH
625 NORMAND Joseph B 231 07:32:32 FRENCH
626 BUISSON Nicolas B 232 07:32:32 FRENCH
627 MARTIN Alain D 78 07:32:34 FRENCH
628 MAILLET Pierre B 233 07:32:36 FRENCH
629 MORICEAU Gérard D 79 07:32:39 FRENCH
630 GUERIN Jean-Loup C 223 07:32:43 FRENCH
632 CLEAU Audrey B 234 07:32:45 FRENCH
631 GAMBLIN Warren C 224 07:32:45 UNITED KINGDOM
634 SOENEN Christophe C 226 07:32:47 FRENCH
633 RAMON Francisco C 225 07:32:47 FRENCH
635 BURTON Maurice D 80 07:32:58 UNITED KINGDOM
636 BUFFONI Patrick C 227 07:33:01 SWITZERLAND
637 VEYRON Jimmy A 80 07:33:06 FRENCH
638 COURTIN Denis C 228 07:33:10 FRENCH
639 VESTRI Marc C 229 07:33:20 FRENCH
640 CAPERA Michel C 230 07:33:31 FRENCH
641 BORDIER Joel D 81 07:33:33 FRENCH
642 PRÉAU Francis C 231 07:33:37 FRENCH
643 LAURENT Christophe C 232 07:33:40 FRENCH
644 CLEMENT Philippe C 233 07:33:41 FRENCH
645 CRETET-ARNOLD Lionel B 235 07:33:44 FRENCH
646 LARRA Jerome B 236 07:33:49 FRENCH
647 JEFFROY Robert C 234 07:33:49 UNITED KINGDOM
648 VAN HOUTTE Franck C 235 07:33:50 FRENCH
649 MACKEY Michael C 236 07:33:52 NEW ZEALAND
650 DEGACHE Denis C 237 07:33:53 FRENCH
651 BONAL Jean-Marc C 238 07:33:59 FRENCH
652 WESER Ronald B 237 07:34:05 GERMANY
653 MARTAIL Vincent B 238 07:34:07 FRENCH
654 AMANS Gerard D 82 07:34:09 FRENCH
655 STOEHR Dany B 239 07:34:14 FRENCH
656 ERRECONDO Alain C 239 07:34:16 FRENCH
657 JONES Mike C 240 07:34:16 UNITED KINGDOM
658 EDWARDS Ian B 240 07:34:20 UNITED STATES
659 MONTERNOT Didier C 241 07:34:21 FRENCH
660 LELIGNE Thierry C 242 07:34:23 FRENCH
661 MARQUES Cyril B 241 07:34:24 FRENCH
662 GAILLARD Stephane B 242 07:34:29 UNITED KINGDOM
663 FONTAINE Stephane B 243 07:34:36 FRENCH
664 PICHAND Yves E 12 07:34:38 FRENCH
665 DE VILLIERS Jonathan B 244 07:34:41 FRENCH
666 ROODZANT Hans C 243 07:34:49 NETHERLANDS, THE
667 PERRET Jean D 83 07:34:55 FRENCH
668 GORTON William B 245 07:34:55 UNITED KINGDOM
669 COUANON Jean Marc C 244 07:35:01 FRENCH
670 MATHIEU Alain D 84 07:35:02 FRENCH
671 POIRIER David B 246 07:35:05 FRENCH
672 TONIZZO Francis C 245 07:35:06 FRENCH
673 MARCHIVE Ludovic B 247 07:35:07 FRENCH
675 HARMAND Jérôme B 248 07:35:08 FRENCH
674 BESSE Luc C 246 07:35:08 FRENCH
676 GAUX Sébastien A 81 07:35:10 FRENCH
677 MALBRANQUE Jean-Claude C 247 07:35:10 FRENCH
681 FOIVARD Daniel C 248 07:35:11 FRENCH
678 LASSABLIERE Michel D 85 07:35:11 FRENCH
679 ARRAMBOURG Mathieu A 82 07:35:11 FRENCH
680 MICKLIN Adam B 249 07:35:11 UNITED STATES
682 OCTOR Romain A 83 07:35:12 FRENCH
683 PARROTTE Richard C 249 07:35:12 UNITED KINGDOM
685 JOHNSEN Troels B 251 07:35:16 DENMARK
684 WIROTH Jean Baptiste B 250 07:35:16 FRENCH
686 SCHAUBER Alain C 250 07:35:24 FRENCH
687 BADIQUE Patrick C 251 07:35:26 FRENCH
688 GRIFFITHS Peter B 252 07:35:29 UNITED KINGDOM
689 CHUN KAI Feng A 84 07:35:32 TAIWAN
690 CHAIX Daniel C 252 07:35:34 FRENCH
691 GREGOIRE ANTOINE Christian C 253 07:35:36 FRENCH
692 DISLE Antoine C 254 07:35:45 FRENCH
693 CRASSAC Alain C 255 07:35:47 FRENCH
694 MASSON Renaud B 253 07:36:00 FRENCH
695 COUET Fabrice C 256 07:36:01 FRENCH
696 SAINTUPERY Eric C 257 07:36:06 FRENCH
698 SCHWOB Alphonse C 258 07:36:07 FRENCH
697 HULSE David B 254 07:36:07 UNITED KINGDOM
699 HOCDE David A 85 07:36:08 FRENCH
700 BOUQUET Franck B 255 07:36:09 FRENCH
701 VELTHUIS Hugo C 259 07:36:11 SWITZERLAND
702 PIROUX Serge C 260 07:36:12 FRENCH
703 BROWNING Marcus B 256 07:36:16 UNITED KINGDOM
704 CHARRE Pascal B 257 07:36:32 FRENCH
706 CARPENTIER Cédric B 258 07:36:33 FRENCH
705 ENTZ Dominique C 261 07:36:33 FRENCH
707 HAWKINS Mike B 259 07:36:38 UNITED KINGDOM
708 STEWART James C 262 07:36:39 UNITED KINGDOM
709 RIOM Jean- Baptiste A 86 07:36:52 FRENCH
710 VERTADIER Eric B 260 07:36:56 FRENCH
711 FAURIE Eric B 261 07:36:59 FRENCH
712 HUBERT René C 263 07:37:03 FRENCH
713 FRIGUET Benoit B 262 07:37:06 FRENCH
714 ETCHEVERRY Jacques C 264 07:37:06 FRENCH
715 DEBAY Joël D 86 07:37:08 FRENCH
716 MILLET Laurent B 263 07:37:09 FRENCH
717 CLOET Julien A 87 07:37:11 FRENCH
718 RECAPET Christian E 13 07:37:17 FRENCH
719 JACOBELLI Thibaut B 264 07:37:19 FRENCH
720 WADDAMS Matthew C 265 07:37:22 FRENCH
721 MORETTI Denis B 265 07:37:24 FRENCH
722 LAMACQ Pascal D 87 07:37:37 FRENCH
723 PEZET André E 14 07:37:45 FRENCH
724 GOERGEN Jean Marie D 88 07:37:46 FRENCH
725 BARAN Jérôme B 266 07:37:58 FRENCH
726 GOUMY Denis C 266 07:38:01 FRENCH
728 PELLICIER Richard B 268 07:38:01 FRENCH
727 CATFORD Edward B 267 07:38:01 UNITED KINGDOM
729 FORSTER Huw C 267 07:38:03 UNITED KINGDOM
731 CUMONT Jérôme B 269 07:38:04 FRENCH
730 SCHARTZ Aly C 268 07:38:04 LUXEMBOURG
732 DAENS Frédéric A 88 07:38:05 FRENCH
733 HERMAND Pierre-Henry E 15 07:38:05 FRENCH
734 CONTINSOUZA Joel C 269 07:38:06 FRENCH
735 BRETHIAUX Daniel D 89 07:38:18 FRENCH
736 JOURDAIN Franck B 270 07:38:20 FRENCH
737 EXBRAYAT Didier C 270 07:38:21 FRENCH
738 JOUNO Lenaïc A 89 07:38:25 FRENCH
739 HOOK John D 90 07:38:28 UNITED KINGDOM
740 LEMOINE Jean-Marie C 271 07:38:31 FRENCH
741 BLANCHOT Frederic C 272 07:38:39 FRENCH
742 HEMMINGS Philip C 273 07:38:46 FRENCH
743 BOURGEOT Jean Francois C 274 07:38:47 FRENCH
744 FERRANDEZ Guy D 91 07:38:48 FRENCH
745 DRISS Vincent B 271 07:38:52 FRENCH
746 JAMES Simon D 92 07:38:58 UNITED KINGDOM
747 PRODANU Daniel D 93 07:39:08 FRENCH
748 MICHALAK Peter B 272 07:39:08 GERMANY
749 STANHOPE Benjamin B 273 07:39:11 UNITED KINGDOM
750 BIRCH Daniel B 274 07:39:14 UNITED KINGDOM
751 PROIX Alain C 275 07:39:17 FRENCH
752 NORRIS James B 275 07:39:24 UNITED KINGDOM
753 SIOHAN François E 16 07:39:26 FRENCH
754 BRIOT Jean Paul C 276 07:39:27 FRENCH
755 LANCELOT Paul B 276 07:39:28 FRENCH
756 HURAULT Emmeric B 277 07:39:29 UNITED KINGDOM
757 FOREAU Alain C 277 07:39:30 FRENCH
758 DEKENS Daniel D 94 07:39:35 FRENCH
759 DUPONT Jean-Yves C 278 07:39:38 FRENCH
760 GILLARDEAU Romain A 90 07:39:39 FRENCH
761 GAUX Thierry C 279 07:39:41 FRENCH
762 DUFFY Glenn A 91 07:39:43 UNITED KINGDOM
763 FAVIERE Jany D 95 07:39:45 FRENCH
764 VEYRENCHE Serge E 17 07:39:56 FRENCH
765 RAMIREZ GILABERT Jose Ramon B 278 07:39:57 UNITED KINGDOM
766 PLUQUET Jean-Luc C 280 07:40:14 FRENCH
767 BARELLI Henri D 96 07:40:16 FRENCH
768 LANCELLE Gilles D 97 07:40:18 FRENCH
769 ACEBES Javier B 279 07:40:19 FRENCH
770 GAUDIN Vincent A 92 07:40:27 FRENCH
771 FICATIER Mathieu A 93 07:40:28 FRENCH
772 RITTSON THOMAS Rupert C 281 07:40:30 UNITED KINGDOM
773 MORISOT Olivier B 280 07:40:32 FRENCH
774 SABATHE Jean-Marie D 98 07:40:35 FRENCH
775 BASTIE Alain D 99 07:40:36 FRENCH
776 PERNUIT Yann A 94 07:40:38 FRENCH
777 DUMAS Thierry B 281 07:40:46 FRENCH
778 GOULARD Youenn B 282 07:40:48 FRENCH
779 SIMON Philippe C 282 07:40:51 FRENCH
780 BERGERARD Mickael A 95 07:40:54 FRENCH
781 MUTIN Hervé A 96 07:40:56 FRENCH
782 VARESANO Aldo D 100 07:40:58 FRENCH
783 LAMBERT Jean Paul C 283 07:40:59 FRENCH
784 DUVAL Thierry B 283 07:41:00 FRENCH
785 O’MAHONY Kieran B 284 07:41:03 IRELAND
786 MOORE Christophe C 284 07:41:04 FRENCH
787 GARNIER Sebastien B 285 07:41:05 FRENCH
788 BOUCHER Arnaud A 97 07:41:19 FRENCH
789 FORESTA Brian B 286 07:41:22 NETHERLANDS, THE
790 WRAGG Neil B 287 07:41:23 UNITED KINGDOM
791 TABARLY Bruno B 288 07:41:24 FRENCH
792 RENOULT Christian C 285 07:41:24 FRENCH
793 MERLE Johann A 98 07:41:27 FRENCH
794 LEIDE Burkhard C 286 07:41:30 FRENCH
795 MILLERGILL Mark C 287 07:41:31 UNITED KINGDOM
796 LEBUGLE Christophe C 288 07:41:53 FRENCH
797 BESSY Michel C 289 07:41:54 FRENCH
798 ARNOLD Matthew B 289 07:41:54 UNITED KINGDOM
799 PONS Alain G 4 07:41:55 FRENCH
800 BARLIER Olivier B 290 07:41:55 FRENCH
801 BERARD Sébastien A 99 07:41:56 FRENCH
802 STERCZYNSKI Bernard D 101 07:42:02 FRENCH
803 RAFFIN Didier D 102 07:42:03 FRENCH
804 MARGUET Denis B 291 07:42:03 SWITZERLAND
805 LOPEZ Rafael D 103 07:42:04 FRENCH
806 BROEKHUIZEN Duncan B 292 07:42:12 NETHERLANDS, THE
807 CHAUVET Eric C 290 07:42:17 FRENCH
809 KILMARTIN Christy B 293 07:42:26 NETHERLANDS, THE
808 BEKAERT Gerard C 291 07:42:26 FRENCH
810 GERMAIN Alexandre B 294 07:42:37 FRENCH
811 PLIEGER Gerrit D 104 07:42:45 NETHERLANDS, THE
812 PETTREMENT Philippe B 295 07:42:48 FRENCH
813 BIAIS Sylvain A 100 07:42:51 FRENCH
814 TOUSSAINT Gilles C 292 07:42:53 FRENCH
815 ROBINSON Alan C 293 07:42:59 AUSTRALIA
816 WILSON James B 296 07:43:05 UNITED KINGDOM
817 PROUET Michaël A 101 07:43:09 FRENCH
818 DEFOIS Jean-Louis C 294 07:43:15 FRENCH
819 BONAL Philippe C 295 07:43:17 FRENCH
820 LEGRET Philippe C 296 07:43:18 FRENCH
821 AUDLEY Mike B 297 07:43:21 UNITED STATES
823 KEALEY Dermot B 299 07:43:24 FRENCH
822 RIVETT John B 298 07:43:24 UNITED KINGDOM
824 HIENKENS Ralph C 297 07:43:25 NETHERLANDS, THE
825 BAKKER Dirk Jan C 298 07:43:25 NETHERLANDS, THE
826 CARLON Pierre C 299 07:43:26 FRENCH
828 RULIERE Frédéric B 301 07:43:31 FRENCH
827 CHAUVET Laurent B 300 07:43:31 FRENCH
829 WINDIRSCH Klaus A 102 07:43:33 GERMANY
830 GARNIER Franck B 302 07:43:34 FRENCH
831 CHENEAU Guillaume B 303 07:43:37 FRENCH
832 HARDY Thomas B 304 07:43:38 AUSTRALIA
833 BIELLO Mario C 300 07:43:43 FRENCH
834 CIBAT Jean E 18 07:43:45 FRENCH
835 HEBING William C 301 07:43:46 NETHERLANDS, THE
836 DOS SANTOS Leonel B 305 07:43:49 SWITZERLAND
837 MENVIELLE Michel C 302 07:43:49 FRENCH
838 CROISILLE Pierre A 103 07:43:55 FRENCH
839 MALLET Pierre D 105 07:44:04 FRENCH
840 COOKE Huw B 306 07:44:10 UNITED KINGDOM
842 PARRAGA VITALI David B 308 07:44:16 SPAIN
841 TIROT Nicolas B 307 07:44:16 FRENCH
843 LOUDES Christian C 303 07:44:17 FRENCH
844 KUBIN Igor D 106 07:44:18 CZECH REPUBLIC
845 BANDINI Bruno C 304 07:44:22 FRENCH
846 BRENIER Michel B 309 07:44:25 FRENCH
847 PASSARINI Pierluigi C 305 07:44:29 ITALY
848 BOSSET Eric B 310 07:44:34 FRENCH
849 DELPORTE Alain C 306 07:44:35 FRENCH
850 ROSSO Jean Pierre E 19 07:44:36 FRENCH
851 FEYTONS Patrick D 107 07:44:38 FRENCH
852 ARAGNO Christian D 108 07:44:39 FRENCH
853 CHIRON Benoît B 311 07:44:45 FRENCH
854 TOURTE Bruno C 307 07:44:47 FRENCH
855 BARTRINA Guillaume A 104 07:44:48 FRENCH
856 BAYER Peter B 312 07:44:51 DENMARK
857 GIRARD Alain C 308 07:44:51 FRENCH
858 MONJALET Laurent B 313 07:44:59 FRENCH
859 BOSC Guillaume B 314 07:45:10 FRENCH
860 FUZAT Hervé B 315 07:45:11 FRENCH
861 BAPT Gregory A 105 07:45:12 FRENCH
862 VANESTRENVORD Jean Michel D 109 07:45:17 FRENCH
863 DONNELLY Paul C 309 07:45:20 UNITED KINGDOM
864 ANDERSON Cleber C 310 07:45:26 BRAZIL
865 UBALDO Jean-Claude D 110 07:45:31 FRENCH
866 WILTON Richard D 111 07:45:32 FRENCH
867 LAVIGNE Daniel D 112 07:45:37 FRENCH
868 BECKER Franck B 316 07:45:38 FRENCH
869 ARCANGELI Romain A 106 07:45:40 FRENCH
871 VIVIER Christian C 312 07:45:51 FRENCH
870 SCHOFIELD Mark C 311 07:45:51 UNITED KINGDOM
872 MOUCHART Romuald B 317 07:45:54 FRENCH
873 BACCONNIER Jean-Claude C 313 07:45:56 FRENCH
874 MOLLARET Bruno C 314 07:45:56 FRENCH
875 JOURDREN Stéphane A 107 07:46:05 FRENCH
876 ROUANET Christian E 20 07:46:06 FRENCH
877 CASSIN Denis C 315 07:46:08 FRENCH
878 LACOULINE Michel C 316 07:46:10 CANADA
879 OSWALD James C 317 07:46:22 SWITZERLAND
880 HEAPS Michel C 318 07:46:25 FRENCH
881 WATARAI Shigehiko D 113 07:46:27 JAPAN
882 GAUDINAUD Christophe C 319 07:46:28 FRENCH
883 SINTES Serge B 318 07:46:30 FRENCH
884 GWATKIN Andrew B 319 07:46:31 UNITED KINGDOM
885 HYDES Ralph B 320 07:46:37 UNITED STATES
886 LE GUENNEC Joël D 114 07:46:38 FRENCH
887 DESBUISSONS Franck C 320 07:46:41 FRENCH
888 PERCEVAL Arnaud B 321 07:46:44 FRENCH
889 RAMET Didier D 115 07:46:46 FRENCH
890 BERGER Yves D 116 07:46:49 FRENCH
891 HOLMES Brent C 321 07:46:49 UNITED KINGDOM
892 SHAW Andrew C 322 07:46:57 UNITED KINGDOM
893 SÉNAC Pierre C 323 07:47:03 FRENCH
894 BERGUA Xavier B 322 07:47:06 SPAIN
895 VERDOYA Jean-Louis C 324 07:47:09 FRENCH
896 BOURCIER Jean Michel C 325 07:47:14 FRENCH
897 LAMOUR Marc C 326 07:47:15 FRENCH
898 WERESTCHAK Gilles C 327 07:47:20 FRENCH
899 GIRLING Andrew B 323 07:47:26 UNITED KINGDOM
900 CHABBERT Pierre B 324 07:47:29 FRENCH
901 LELIEVRE Eric B 325 07:47:32 FRENCH
902 BOULITEAU Franck C 328 07:47:39 FRENCH
903 LANGFORD Stephen C 329 07:47:44 UNITED KINGDOM
904 GUILLOME André E 21 07:47:45 FRENCH
905 LEBRUN Bernard D 117 07:47:46 FRENCH
906 GASQUET Robert E 22 07:47:52 FRENCH
907 SERVEL Philippe C 330 07:47:56 FRENCH
908 BAUDRILLARD Eric C 331 07:47:56 FRENCH
909 BELBIN Terry C 332 07:48:03 UNITED KINGDOM
910 EDGELL Jason C 333 07:48:04 UNITED KINGDOM
911 GALLARDO Kenneth B 326 07:48:05 UNITED STATES
912 BRIARS Michael B 327 07:48:08 UNITED KINGDOM
914 CHAMBARD David B 329 07:48:14 FRENCH
913 BEER Joseph B 328 07:48:14 UNITED KINGDOM
916 REGOUBY Pierre C 334 07:48:17 FRENCH
915 BAILLEUL Thomas A 108 07:48:17 FRENCH
917 RIBOUD Iun C 335 07:48:21 FRENCH
918 THEVENET Patrick C 336 07:48:23 FRENCH
919 JACK Alastair C 337 07:48:24 UNITED KINGDOM
920 BLEUNVEN Gerard C 338 07:48:26 FRENCH
921 GIL Maxime A 109 07:48:26 FRENCH
923 PETIT Jean-Michel C 340 07:48:30 FRENCH
922 LAURENT Jean-Jacques C 339 07:48:30 FRENCH
924 DEMONCHAUX François-Xavier D 118 07:48:31 FRENCH
925 QUENAULT Dany C 341 07:48:32 FRENCH
926 BOGNIER Olivier B 330 07:48:42 FRENCH
927 PAILLIER Bruno C 342 07:48:43 FRENCH
928 GALLO Monique G 5 07:48:47 FRENCH
929 JOULIN Eric B 331 07:48:50 FRENCH
930 ARNOULD Gerard D 119 07:48:51 FRENCH
931 LECLERE Ludovic A 110 07:48:52 FRENCH
932 LANOO Jean-Marc D 120 07:48:53 FRENCH
933 PAOLINI Rene D 121 07:48:54 FRENCH
934 VASSARD François B 332 07:48:56 FRENCH
935 CHANEL David B 333 07:48:57 FRENCH
936 AUBRIOT Michel C 343 07:48:58 FRENCH
937 GIHCOMIN Paul E 23 07:49:01 FRENCH
938 EPINOUX Jean-Luc D 122 07:49:09 FRENCH
939 BORCY Didier C 344 07:49:14 BELGIUM
940 POISSON Pascal D 123 07:49:15 FRENCH
941 L’HOTE Jeremy A 111 07:49:21 FRENCH
942 LANG Gilbert D 124 07:49:23 FRENCH
943 BEYER Jonathan A 112 07:49:24 UNITED STATES
944 FUSSY Andreas B 334 07:49:32 GERMANY
945 OLLIVIER Serge D 125 07:49:33 FRENCH
946 LAPORTE FAURET Frédéric C 345 07:49:33 FRENCH
947 ANSQUER Gweanael B 335 07:49:37 FRENCH
948 DELGRANGE Alain D 126 07:49:46 FRENCH
949 FAIZANDIER Olivier B 336 07:50:02 FRENCH
950 SEGUIN Sylvain D 127 07:50:02 FRENCH
951 SCHAEFER Nicholas C 346 07:50:03 FRENCH
952 COSTA Ricardo Jorge Xavier B 337 07:50:08 PORTUGAL
953 GRISEL Laurent B 338 07:50:10 FRENCH
954 BARRETTE Marc C 347 07:50:19 CANADA
955 FAGOT Jean-Christophe A 113 07:50:33 FRENCH
957 PIANU Paul C 349 07:50:41 FRENCH
956 COMPAIN Patrick C 348 07:50:41 FRENCH
958 DOUBLET François C 350 07:50:42 FRENCH
959 KAMINSKI Dariusz B 339 07:50:46 POLAND
960 KRABBE José B 340 07:50:47 FRENCH
961 KEETMAN Margreet G 6 07:50:49 FRENCH
962 HALOUZE Jean-François B 341 07:50:51 FRENCH
964 GAY Cédric A 114 07:50:51 FRENCH
963 LOGEZ Philippe B 342 07:50:51 FRENCH
965 BEAUPERE Régis B 343 07:50:58 FRENCH
966 ROSELIER Jacky D 128 07:51:00 FRENCH
967 ROBERT Remy B 344 07:51:09 FRENCH
968 DELAUP Jacky E 24 07:51:13 FRENCH
969 LOIGEROT Alain D 129 07:51:14 FRENCH
970 LOSTE Patrick C 351 07:51:21 FRENCH
972 TISDALL Ben Justin C 353 07:51:22 UNITED KINGDOM
971 MIDDLEMISS Ken C 352 07:51:22 UNITED KINGDOM
973 LONGIN Philippe D 130 07:51:26 FRENCH
974 SIERRA Dominique G 7 07:51:33 FRENCH
975 POUJARDIEU Philippe C 354 07:51:38 FRENCH
977 FOUCAULT Julien A 115 07:51:41 FRENCH
976 DAVID William B 345 07:51:41 FRENCH
978 COLLET Olivier B 346 07:51:43 FRENCH
979 PASCAL Ernest C 355 07:51:43 FRENCH
980 NICOLETTI François C 356 07:51:45 FRENCH
981 ORCET Pascal C 357 07:51:53 FRENCH
982 LAFORGE Frederic C 358 07:52:01 FRENCH
983 JOURDAN Franck B 347 07:52:03 FRENCH
984 MARTIN Emilio C 359 07:52:05 FRENCH
985 PETIT Sebastien A 116 07:52:09 FRENCH
986 HARRISON David A 117 07:52:12 UNITED KINGDOM
987 DENIS Sebastien A 118 07:52:18 FRENCH
989 JACQUOT Julien A 119 07:52:21 FRENCH
988 BLOT Stephane B 348 07:52:21 FRENCH
990 FRANCK Thierry C 360 07:52:24 BELGIUM
991 PEZO Noel D 131 07:52:25 FRENCH
992 CHAPELLE Philippe C 361 07:52:26 FRENCH
993 HENNIG Gundula F 3 07:52:27 UNITED KINGDOM
995 BARREAU Jean Claude E 25 07:52:29 FRENCH
994 FOLLIOT Rodolphe B 349 07:52:29 FRENCH
996 MUNTONI Daniel B 350 07:52:31 FRENCH
997 LAFOY Dominique C 362 07:52:31 FRENCH
999 SOMA Thierry C 364 07:52:35 FRENCH
998 NEVILLE Nicholas C 363 07:52:35 UNITED STATES
1000 BRETON Eric D 132 07:52:36 FRENCH

上向き 









上向き  
 プライベートエリア   著作権については-Copyright: クリック ここで 読むには!